Flag for Germany Weather past 2 weeks in Wolfsburg, Lower Saxony, Germany

Now
52 °F

Cool.


Feels Like: 51 °F
Forecast: 46 / 69 °F
Wind: 5 mph from Northeast

Location: Celle Airport


UV Index: 3 (Moderate)

Visibility: 3 mi


Pressure: 29.74 "Hg

Humidity: 94%

Dew point: 50 °F

Location of WolfsburgLocation

Historic Weather in Wolfsburg

°F

Wolfsburg temperature yesterday

Maximum temperature yesterday: 68 °F (at 3:20 PM)
Minimum temperature yesterday: 48 °F (at 6:20 AM)
Average temperature yesterday: 59 °F

Past Weeks' High & Low Weather Summary

 TemperatureHumidityPressure
High68 °F (Apr 7, 3:20 PM)100% (Apr 6, 6:20 AM)30.48 "Hg (Apr 6, 6:20 AM)
Low30 °F (Apr 16, 4:20 AM)34% (Apr 17, 3:20 PM)29.71 "Hg (Apr 8, 4:20 AM)
Average50 °F75%30.03 "Hg
* Reported Apr 6 6:20 AM — Apr 21 6:20 AM, Wolfsburg, Weather by CustomWeather, © 2014

Note: Actual official high and low records may vary slightly from our data, if they occured in-between our weather recording intervals... More about our weather records

Advertising

Historic Weather Conditions — Data for Previous 24 hours

 ConditionsComfort  
Time TempWeatherWind HumidityBarometerVisibility
6:20 AM
Apr 21
52 °FCool.6 mph94%29.77 "Hg2 mi
5:20 AM52 °FCool.5 mph88%29.77 "Hg3 mi
4:20 AM55 °FCool.7 mph72%29.77 "Hg3 mi
3:20 AM55 °FCool.8 mph72%29.77 "Hg3 mi
2:20 AM55 °FCool.6 mph72%29.80 "Hg3 mi
1:20 AM57 °FCool.6 mph63%29.80 "Hg3 mi
12:20 AM57 °FCool.6 mph63%29.83 "Hg3 mi
11:20 PM
Apr 20
57 °FCool.5 mph63%29.83 "Hg4 mi
10:20 PM59 °FRefreshingly cool.7 mph59%29.83 "Hg4 mi
9:20 PM63 °FMild.7 mph52%29.83 "Hg4 mi
8:20 PM64 °FMild.10 mph49%29.80 "Hg4 mi
7:20 PM66 °FMild.8 mph46%29.80 "Hg4 mi
6:20 PM68 °FMild.14 mph43%29.80 "Hg4 mi
5:20 PM68 °FMild.14 mph40%29.80 "Hg4 mi
4:20 PM68 °FMild.9 mph43%29.80 "Hg4 mi
3:20 PM68 °FMild.14 mph43%29.83 "Hg4 mi
2:20 PM66 °FMild.18 mph46%29.83 "Hg4 mi
1:20 PM64 °FMild.17 mph52%29.86 "Hg4 mi
12:20 PM64 °FMild.18 mph52%29.86 "Hg3 mi
11:20 AM63 °FMild.14 mph59%29.89 "Hg3 mi
10:20 AM59 °FCool.12 mph63%29.89 "Hg3 mi
9:20 AM55 °FCool.9 mph72%29.89 "Hg3 mi
8:20 AM52 °FCool.7 mph82%29.89 "Hg3 mi
Weather by CustomWeather, © 2014

See weather overview